User: anonymous   Login
Location: Unspecified
(0.0000°N, 0.0000°E)
Time: 03:18:25
(UTC+00:00)
Language:

USA 110 - Orbit

View from above orbital plane
View from above orbital plane
View from above satellite
View from above satellite

Ground track
Ground track

The orbit data is extracted from the following two-line orbital elements,

1 23567U 95022A   18252.77615692 0.00000000  00000-0  00000-0 0    05
2 23567  14.3115  34.2569 0059203  94.7960 265.8986  1.00270000    07
Epoch (UTC): 09 September 2018 18:37:39
Eccentricity: 0.0059203
inclination: 14.3115°
perigee height: 35537 km
apogee height: 36036 km
right ascension of ascending node: 34.2569°
argument of perigee: 94.7960°
revolutions per day: 1.00270000
mean anomaly at epoch: 265.8986°
orbit number at epoch: 0

The dashed part of the orbit path shows where the satellite is in the earth's shadow,  

DLR